TimeEST,TemperatureF,Dew PointF,Humidity,Sea Level PressureIn,VisibilityMPH,Wind Direction,Wind SpeedMPH,Gust SpeedMPH,PrecipitationIn,Events,Conditions,WindDirDegrees,DateUTC
12:53 AM,14.0,-5.1,43,30.30,10.0,NNW,5.8,-,N/A,,Clear,330,2013-02-10 05:53:00
1:53 AM,12.9,-5.1,45,30.31,10.0,NNW,6.9,-,N/A,,Clear,330,2013-02-10 06:53:00
2:53 AM,15.1,-4.0,43,30.32,10.0,NW,5.8,-,N/A,,Clear,310,2013-02-10 07:53:00
3:53 AM,7.0,-6.0,55,30.34,10.0,Calm,Calm,-,N/A,,Clear,0,2013-02-10 08:53:00
4:53 AM,10.9,-5.1,49,30.36,10.0,NNW,6.9,-,N/A,,Clear,340,2013-02-10 09:53:00
5:53 AM,1.9,-6.0,69,30.38,10.0,NNE,4.6,-,N/A,,Clear,20,2013-02-10 10:53:00
6:53 AM,-2.0,-7.1,79,30.42,10.0,Calm,Calm,-,N/A,,Clear,0,2013-02-10 11:53:00
7:53 AM,-2.9,-9.0,75,30.45,10.0,NE,4.6,-,N/A,,Clear,50,2013-02-10 12:53:00
8:53 AM,15.1,-2.9,45,30.45,10.0,ENE,4.6,-,N/A,,Clear,60,2013-02-10 13:53:00
9:53 AM,19.0,-2.0,40,30.46,10.0,NE,4.6,-,N/A,,Clear,50,2013-02-10 14:53:00
10:53 AM,24.1,1.0,37,30.47,10.0,North,3.5,-,N/A,,Clear,10,2013-02-10 15:53:00
11:53 AM,30.0,-0.0,28,30.43,10.0,Calm,Calm,-,N/A,,Clear,0,2013-02-10 16:53:00
12:53 PM,35.1,1.0,24,30.40,10.0,Calm,Calm,-,N/A,,Clear,0,2013-02-10 17:53:00
1:53 PM,34.0,10.0,37,30.38,10.0,Calm,Calm,-,N/A,,Clear,0,2013-02-10 18:53:00
2:53 PM,34.0,5.0,30,30.38,10.0,South,3.5,-,N/A,,Clear,180,2013-02-10 19:53:00
3:53 PM,34.0,5.0,30,30.38,10.0,South,4.6,-,N/A,,Clear,180,2013-02-10 20:53:00
4:53 PM,32.0,3.9,31,30.37,10.0,South,3.5,-,N/A,,Clear,170,2013-02-10 21:53:00
5:53 PM,28.9,3.9,35,30.38,10.0,Calm,Calm,-,N/A,,Clear,0,2013-02-10 22:53:00
6:53 PM,21.9,7.0,53,30.39,10.0,Calm,Calm,-,N/A,,Clear,0,2013-02-10 23:53:00
7:53 PM,21.0,8.1,57,30.39,10.0,Calm,Calm,-,N/A,,Clear,0,2013-02-11 00:53:00
8:53 PM,16.0,6.1,65,30.38,10.0,Calm,Calm,-,N/A,,Clear,0,2013-02-11 01:53:00
9:53 PM,12.0,5.0,73,30.37,10.0,Calm,Calm,-,N/A,,Clear,0,2013-02-11 02:53:00
10:53 PM,12.0,6.1,77,30.38,10.0,Calm,Calm,-,N/A,,Clear,0,2013-02-11 03:53:00
11:53 PM,12.9,8.1,81,30.35,10.0,Calm,Calm,-,N/A,,Clear,0,2013-02-11 04:53:00